Time,TemperatureF,DewpointF,PressureIn,WindDirection,WindDirectionDegrees,WindSpeedMPH,WindSpeedGustMPH,Humidity,HourlyPrecipIn,Conditions,Clouds,dailyrainin,SoftwareType,DateUTC
2013-10-07 00:01:00,66.2,66.0,30.13,SSE,157,4.7,9.0,99,0.00,,,0.00,Rainwise IP-100,2013-10-07 04:01:00,
2013-10-07 00:02:00,66.2,66.0,30.13,SSE,157,2.8,9.0,99,0.00,,,0.00,Rainwise IP-100,2013-10-07 04:02:00,
2013-10-07 00:03:00,66.2,66.0,30.13,SSE,157,2.3,8.0,99,0.00,,,0.00,Rainwise IP-100,2013-10-07 04:03:00,
2013-10-07 00:08:00,66.2,66.0,30.13,SSE,157,8.2,8.2,99,0.00,,,0.00,Rainwise IP-100,2013-10-07 04:08:00,
2013-10-07 00:13:00,66.3,66.0,30.13,SSE,157,5.4,8.0,99,0.00,,,0.00,Rainwise IP-100,2013-10-07 04:13:00,
2013-10-07 00:18:00,66.5,66.0,30.12,SSE,157,7.0,8.0,99,0.00,,,0.00,Rainwise IP-100,2013-10-07 04:18:00,
2013-10-07 00:23:00,66.6,66.0,30.13,ESE,112,3.7,7.0,99,0.00,,,0.00,Rainwise IP-100,2013-10-07 04:23:00,
2013-10-07 00:28:00,66.8,66.0,30.12,SSE,157,7.0,8.0,99,0.00,,,0.00,Rainwise IP-100,2013-10-07 04:28:00,
2013-10-07 00:33:00,66.9,66.0,30.13,SSE,157,4.7,7.0,99,0.00,,,0.00,Rainwise IP-100,2013-10-07 04:33:00,
2013-10-07 00:38:00,66.9,66.0,30.12,SSE,157,7.5,8.0,99,0.00,,,0.00,Rainwise IP-100,2013-10-07 04:38:00,
2013-10-07 00:43:00,67.0,66.0,30.12,SSW,202,3.7,10.0,99,0.00,,,0.00,Rainwise IP-100,2013-10-07 04:43:00,
2013-10-07 00:48:00,67.0,66.0,30.13,SSW,202,4.0,8.0,99,0.00,,,0.00,Rainwise IP-100,2013-10-07 04:48:00,
2013-10-07 00:53:00,67.0,67.0,30.13,SSW,202,3.5,7.0,100,0.00,,,0.00,Rainwise IP-100,2013-10-07 04:53:00,
2013-10-07 00:58:00,67.0,67.0,30.13,SSE,157,3.7,7.0,100,0.00,,,0.00,Rainwise IP-100,2013-10-07 04:58:00,
2013-10-07 01:03:00,67.0,67.0,30.12,SSW,202,3.3,8.0,100,0.00,,,0.00,Rainwise IP-100,2013-10-07 05:03:00,
2013-10-07 01:08:00,67.0,67.0,30.12,SSW,202,4.2,7.0,100,0.00,,,0.00,Rainwise IP-100,2013-10-07 05:08:00,
2013-10-07 01:13:00,67.1,67.0,30.12,SSW,202,3.7,7.0,100,0.00,,,0.00,Rainwise IP-100,2013-10-07 05:13:00,
2013-10-07 01:18:00,67.1,67.0,30.12,South,180,2.1,5.0,100,0.00,,,0.00,Rainwise IP-100,2013-10-07 05:18:00,
2013-10-07 01:23:00,67.1,67.0,30.12,SSE,157,5.4,5.4,100,0.00,,,0.00,Rainwise IP-100,2013-10-07 05:23:00,
2013-10-07 01:28:00,67.1,67.0,30.12,SSW,202,5.1,8.0,100,0.00,,,0.00,Rainwise IP-100,2013-10-07 05:28:00,
2013-10-07 01:33:00,67.1,67.0,30.12,SSW,202,8.4,8.4,100,0.00,,,0.00,Rainwise IP-100,2013-10-07 05:33:00,
2013-10-07 01:38:00,67.1,67.0,30.13,SSW,202,5.4,8.0,100,0.00,,,0.00,Rainwise IP-100,2013-10-07 05:38:00,
2013-10-07 01:43:00,67.1,67.0,30.12,SW,225,8.6,9.0,100,0.00,,,0.00,Rainwise IP-100,2013-10-07 05:43:00,
2013-10-07 01:48:00,67.1,67.0,30.13,SSW,202,6.3,9.0,100,0.00,,,0.00,Rainwise IP-100,2013-10-07 05:48:00,
2013-10-07 01:53:00,67.1,67.0,30.12,SSW,202,6.3,7.0,100,0.00,,,0.00,Rainwise IP-100,2013-10-07 05:53:00,
2013-10-07 01:58:00,67.1,67.0,30.12,SSW,202,5.8,8.0,100,0.00,,,0.00,Rainwise IP-100,2013-10-07 05:58:00,
2013-10-07 02:03:00,67.1,67.0,30.12,SSW,202,4.4,8.0,100,0.00,,,0.00,Rainwise IP-100,2013-10-07 06:03:00,
2013-10-07 02:08:00,67.1,67.0,30.13,SSW,202,4.7,6.0,100,0.00,,,0.00,Rainwise IP-100,2013-10-07 06:08:00,
2013-10-07 02:13:00,67.1,67.0,30.12,SSW,202,6.5,7.0,100,0.00,,,0.00,Rainwise IP-100,2013-10-07 06:13:00,
2013-10-07 02:18:00,67.0,67.0,30.11,SSW,202,5.8,9.0,100,0.00,,,0.00,Rainwise IP-100,2013-10-07 06:18:00,
2013-10-07 02:23:00,67.0,67.0,30.11,SW,225,4.2,7.0,100,0.00,,,0.00,Rainwise IP-100,2013-10-07 06:23:00,
2013-10-07 02:28:00,67.0,67.0,30.11,SSW,202,6.5,6.5,100,0.00,,,0.00,Rainwise IP-100,2013-10-07 06:28:00,
2013-10-07 02:33:00,67.0,67.0,30.11,SW,225,6.1,9.0,100,0.00,,,0.00,Rainwise IP-100,2013-10-07 06:33:00,
2013-10-07 02:38:00,67.0,67.0,30.11,SSW,202,3.3,9.0,100,0.00,,,0.00,Rainwise IP-100,2013-10-07 06:38:00,
2013-10-07 02:43:00,67.1,67.0,30.10,SSW,202,2.3,7.0,100,0.00,,,0.00,Rainwise IP-100,2013-10-07 06:43:00,
2013-10-07 02:48:00,67.0,67.0,30.10,SSW,202,4.4,7.0,100,0.00,,,0.00,Rainwise IP-100,2013-10-07 06:48:00,
2013-10-07 02:53:00,67.0,67.0,30.10,SSW,202,4.4,7.0,100,0.00,,,0.00,Rainwise IP-100,2013-10-07 06:53:00,
2013-10-07 02:58:00,67.1,67.0,30.10,SSW,202,6.3,8.0,100,0.06,,,0.01,Rainwise IP-100,2013-10-07 06:58:00,
2013-10-07 03:03:00,67.1,67.0,30.10,SSW,202,6.1,8.0,100,0.06,,,0.01,Rainwise IP-100,2013-10-07 07:03:00,
2013-10-07 03:08:00,67.0,67.0,30.10,SSW,202,8.2,9.0,100,0.00,,,0.01,Rainwise IP-100,2013-10-07 07:08:00,
2013-10-07 03:13:00,67.0,67.0,30.09,SSW,202,7.2,9.0,100,0.00,,,0.01,Rainwise IP-100,2013-10-07 07:13:00,
2013-10-07 03:18:00,67.1,67.0,30.09,SSW,202,4.4,10.0,100,0.00,,,0.01,Rainwise IP-100,2013-10-07 07:18:00,
2013-10-07 03:23:00,67.1,67.0,30.09,SSW,202,3.3,9.0,100,0.00,,,0.01,Rainwise IP-100,2013-10-07 07:23:00,
2013-10-07 03:28:00,67.1,67.0,30.09,SSW,202,4.9,8.0,100,0.00,,,0.01,Rainwise IP-100,2013-10-07 07:28:00,
2013-10-07 03:33:00,67.0,67.0,30.09,SSW,202,8.9,11.0,100,0.00,,,0.01,Rainwise IP-100,2013-10-07 07:33:00,
2013-10-07 03:38:00,66.9,67.0,30.09,SSW,202,7.7,11.0,100,0.00,,,0.01,Rainwise IP-100,2013-10-07 07:38:00,
2013-10-07 03:43:00,66.9,67.0,30.09,SSW,202,7.0,10.0,100,0.00,,,0.01,Rainwise IP-100,2013-10-07 07:43:00,
2013-10-07 03:48:00,66.9,67.0,30.09,SSW,202,8.4,10.0,100,0.00,,,0.01,Rainwise IP-100,2013-10-07 07:48:00,
2013-10-07 03:53:00,66.9,67.0,30.08,SSW,202,8.4,11.0,100,0.00,,,0.01,Rainwise IP-100,2013-10-07 07:53:00,
2013-10-07 03:58:00,66.9,67.0,30.08,South,180,4.0,8.0,100,0.00,,,0.01,Rainwise IP-100,2013-10-07 07:58:00,
2013-10-07 04:03:00,66.8,66.0,30.08,SSW,202,2.8,10.0,100,0.00,,,0.01,Rainwise IP-100,2013-10-07 08:03:00,
2013-10-07 04:08:00,66.7,66.0,30.08,South,180,7.7,11.0,100,0.00,,,0.01,Rainwise IP-100,2013-10-07 08:08:00,
2013-10-07 04:13:00,66.7,66.0,30.08,SSW,202,9.3,11.0,100,0.00,,,0.01,Rainwise IP-100,2013-10-07 08:13:00,
2013-10-07 04:18:00,66.7,66.0,30.08,SSE,157,6.8,12.0,100,0.00,,,0.01,Rainwise IP-100,2013-10-07 08:18:00,
2013-10-07 04:23:00,66.7,66.0,30.08,SE,135,3.7,12.0,100,0.00,,,0.01,Rainwise IP-100,2013-10-07 08:23:00,
2013-10-07 04:28:00,66.7,66.0,30.07,SSW,202,4.4,12.0,100,0.00,,,0.01,Rainwise IP-100,2013-10-07 08:28:00,
2013-10-07 04:33:00,66.6,66.0,30.08,South,180,7.9,10.0,100,0.00,,,0.01,Rainwise IP-100,2013-10-07 08:33:00,
2013-10-07 04:38:00,66.4,66.0,30.07,South,180,6.3,11.0,100,0.00,,,0.01,Rainwise IP-100,2013-10-07 08:38:00,
2013-10-07 04:43:00,66.3,66.0,30.07,SSW,202,2.6,11.0,100,0.00,,,0.01,Rainwise IP-100,2013-10-07 08:43:00,
2013-10-07 04:48:00,66.3,66.0,30.07,SSE,157,3.0,12.0,100,0.00,,,0.01,Rainwise IP-100,2013-10-07 08:48:00,
2013-10-07 04:53:00,66.2,66.0,30.06,SSW,202,4.0,9.0,100,0.00,,,0.01,Rainwise IP-100,2013-10-07 08:53:00,
2013-10-07 04:58:00,66.1,66.0,30.07,South,180,6.3,9.0,100,0.00,,,0.01,Rainwise IP-100,2013-10-07 08:58:00,
2013-10-07 05:03:00,66.1,66.0,30.07,South,180,5.8,8.0,100,0.00,,,0.01,Rainwise IP-100,2013-10-07 09:03:00,
2013-10-07 05:08:00,66.1,66.0,30.07,SSW,202,5.8,11.0,100,0.00,,,0.01,Rainwise IP-100,2013-10-07 09:08:00,
2013-10-07 05:13:00,66.3,66.0,30.07,South,180,4.4,12.0,100,0.00,,,0.01,Rainwise IP-100,2013-10-07 09:13:00,
2013-10-07 05:18:00,66.6,66.0,30.07,South,180,6.8,12.0,100,0.00,,,0.01,Rainwise IP-100,2013-10-07 09:18:00,
2013-10-07 05:23:00,66.8,66.0,30.06,SSW,202,7.9,10.0,100,0.00,,,0.01,Rainwise IP-100,2013-10-07 09:23:00,
2013-10-07 05:28:00,66.9,67.0,30.06,SW,225,4.9,12.0,100,0.00,,,0.01,Rainwise IP-100,2013-10-07 09:28:00,
2013-10-07 05:33:00,67.1,67.0,30.07,SSW,202,6.3,12.0,100,0.00,,,0.01,Rainwise IP-100,2013-10-07 09:33:00,
2013-10-07 05:38:00,67.4,67.0,30.07,SSW,202,7.0,13.0,100,0.00,,,0.01,Rainwise IP-100,2013-10-07 09:38:00,
2013-10-07 05:43:00,67.5,67.0,30.07,SSW,202,8.4,12.0,100,0.00,,,0.01,Rainwise IP-100,2013-10-07 09:43:00,
2013-10-07 05:48:00,67.5,67.0,30.07,SSW,202,11.2,15.0,100,0.06,,,0.02,Rainwise IP-100,2013-10-07 09:48:00,
2013-10-07 05:53:00,67.5,67.0,30.06,SSW,202,7.5,15.0,100,0.06,,,0.02,Rainwise IP-100,2013-10-07 09:53:00,
2013-10-07 05:58:00,67.5,67.0,30.06,SSW,202,9.6,16.0,100,0.00,,,0.02,Rainwise IP-100,2013-10-07 09:58:00,
2013-10-07 06:03:00,67.6,67.0,30.06,SSW,202,7.2,12.0,100,0.00,,,0.02,Rainwise IP-100,2013-10-07 10:03:00,
2013-10-07 06:08:00,67.7,67.0,30.06,South,180,10.5,15.0,100,0.00,,,0.02,Rainwise IP-100,2013-10-07 10:08:00,
2013-10-07 06:13:00,67.7,67.0,30.06,SSW,202,5.6,12.0,100,0.00,,,0.02,Rainwise IP-100,2013-10-07 10:13:00,
2013-10-07 06:18:00,67.7,67.0,30.06,South,180,6.3,12.0,100,0.00,,,0.02,Rainwise IP-100,2013-10-07 10:18:00,
2013-10-07 06:23:00,67.8,67.0,30.06,SSW,202,6.8,12.0,100,0.00,,,0.02,Rainwise IP-100,2013-10-07 10:23:00,
2013-10-07 06:28:00,67.8,67.0,30.06,South,180,8.4,13.0,100,0.00,,,0.02,Rainwise IP-100,2013-10-07 10:28:00,
2013-10-07 06:33:00,67.9,68.0,30.06,SSW,202,8.2,13.0,100,0.00,,,0.02,Rainwise IP-100,2013-10-07 10:33:00,
2013-10-07 06:38:00,68.0,68.0,30.06,SSW,202,8.2,14.0,100,0.00,,,0.02,Rainwise IP-100,2013-10-07 10:38:00,
2013-10-07 06:43:00,68.2,67.0,30.06,SSW,202,2.6,14.0,99,0.00,,,0.02,Rainwise IP-100,2013-10-07 10:43:00,
2013-10-07 06:48:00,68.4,68.0,30.06,SSW,202,16.1,16.1,99,0.00,,,0.02,Rainwise IP-100,2013-10-07 10:48:00,
2013-10-07 06:53:00,68.5,68.0,30.06,SSW,202,14.9,17.0,99,0.00,,,0.02,Rainwise IP-100,2013-10-07 10:53:00,
2013-10-07 06:58:00,68.6,68.0,30.06,South,180,12.6,19.0,99,0.00,,,0.02,Rainwise IP-100,2013-10-07 10:58:00,
2013-10-07 07:03:00,68.8,68.0,30.06,SSW,202,13.1,17.0,99,0.00,,,0.02,Rainwise IP-100,2013-10-07 11:03:00,
2013-10-07 07:08:00,68.9,68.0,30.06,SSW,202,15.6,17.0,99,0.00,,,0.02,Rainwise IP-100,2013-10-07 11:08:00,
2013-10-07 07:13:00,68.9,68.0,30.06,South,180,11.7,17.0,99,0.00,,,0.02,Rainwise IP-100,2013-10-07 11:13:00,
2013-10-07 07:18:00,68.9,68.0,30.06,SSW,202,12.1,17.0,98,0.00,,,0.02,Rainwise IP-100,2013-10-07 11:18:00,
2013-10-07 07:23:00,68.8,68.0,30.06,SSW,202,10.5,15.0,98,0.00,,,0.02,Rainwise IP-100,2013-10-07 11:23:00,
2013-10-07 07:28:00,68.8,68.0,30.06,SSE,157,9.3,14.0,98,0.00,,,0.02,Rainwise IP-100,2013-10-07 11:28:00,
2013-10-07 07:33:00,68.7,68.0,30.05,SSE,157,9.1,18.0,98,0.00,,,0.02,Rainwise IP-100,2013-10-07 11:33:00,
2013-10-07 07:38:00,68.5,68.0,30.05,SSE,157,5.4,17.0,98,0.00,,,0.02,Rainwise IP-100,2013-10-07 11:38:00,
2013-10-07 07:43:00,68.5,68.0,30.05,SSE,157,1.9,20.0,98,0.00,,,0.02,Rainwise IP-100,2013-10-07 11:43:00,
2013-10-07 07:48:00,68.5,68.0,30.06,SSW,202,7.0,16.0,98,0.00,,,0.02,Rainwise IP-100,2013-10-07 11:48:00,
2013-10-07 07:53:00,68.5,68.0,30.06,SSW,202,16.8,19.0,98,0.00,,,0.02,Rainwise IP-100,2013-10-07 11:53:00,
2013-10-07 07:58:00,68.7,68.0,30.05,SSW,202,8.4,17.0,98,0.00,,,0.02,Rainwise IP-100,2013-10-07 11:58:00,
2013-10-07 08:03:00,68.8,68.0,30.05,SSW,202,8.4,18.0,98,0.00,,,0.02,Rainwise IP-100,2013-10-07 12:03:00,
2013-10-07 08:08:00,68.9,68.0,30.05,South,180,14.9,18.0,98,0.00,,,0.02,Rainwise IP-100,2013-10-07 12:08:00,
2013-10-07 08:13:00,69.1,68.0,30.06,SSW,202,8.6,17.0,98,0.00,,,0.02,Rainwise IP-100,2013-10-07 12:13:00,
2013-10-07 08:18:00,69.3,69.0,30.05,SSW,202,13.5,14.0,98,0.00,,,0.02,Rainwise IP-100,2013-10-07 12:18:00,
2013-10-07 08:23:00,69.3,69.0,30.05,SSW,202,11.9,19.0,98,0.00,,,0.02,Rainwise IP-100,2013-10-07 12:23:00,
2013-10-07 08:28:00,69.4,69.0,30.05,SSW,202,10.7,18.0,98,0.00,,,0.02,Rainwise IP-100,2013-10-07 12:28:00,
2013-10-07 08:33:00,69.6,69.0,30.04,SSW,202,13.1,20.0,97,0.00,,,0.02,Rainwise IP-100,2013-10-07 12:33:00,
2013-10-07 08:38:00,69.8,69.0,30.04,SSE,157,6.8,20.0,97,0.00,,,0.02,Rainwise IP-100,2013-10-07 12:38:00,
2013-10-07 08:43:00,70.0,69.0,30.05,SSW,202,14.5,19.0,97,0.00,,,0.02,Rainwise IP-100,2013-10-07 12:43:00,
2013-10-07 08:48:00,70.2,69.0,30.05,SSW,202,13.3,21.0,96,0.00,,,0.02,Rainwise IP-100,2013-10-07 12:48:00,
2013-10-07 08:53:00,70.3,69.0,30.04,SSW,202,10.5,20.0,96,0.00,,,0.02,Rainwise IP-100,2013-10-07 12:53:00,
2013-10-07 08:58:00,70.5,69.0,30.04,SSW,202,11.7,19.0,95,0.00,,,0.02,Rainwise IP-100,2013-10-07 12:58:00,
2013-10-07 09:03:00,70.6,69.0,30.04,SSW,202,13.1,17.0,95,0.00,,,0.02,Rainwise IP-100,2013-10-07 13:03:00,
2013-10-07 09:08:00,70.7,69.0,30.04,SSW,202,16.6,16.6,95,0.00,,,0.02,Rainwise IP-100,2013-10-07 13:08:00,
2013-10-07 09:13:00,70.8,69.0,30.04,SSW,202,16.3,21.0,94,0.00,,,0.02,Rainwise IP-100,2013-10-07 13:13:00,
2013-10-07 09:18:00,71.0,69.0,30.04,South,180,9.6,21.0,94,0.00,,,0.02,Rainwise IP-100,2013-10-07 13:18:00,
2013-10-07 09:23:00,71.2,69.0,30.04,SSE,157,9.3,20.0,93,0.00,,,0.02,Rainwise IP-100,2013-10-07 13:23:00,
2013-10-07 09:28:00,71.4,69.0,30.04,SSW,202,15.4,24.0,93,0.00,,,0.02,Rainwise IP-100,2013-10-07 13:28:00,
2013-10-07 09:33:00,71.5,69.0,30.03,SSW,202,13.8,21.0,92,0.00,,,0.02,Rainwise IP-100,2013-10-07 13:33:00,
2013-10-07 09:38:00,71.6,69.0,30.04,SSW,202,15.2,20.0,92,0.00,,,0.02,Rainwise IP-100,2013-10-07 13:38:00,
2013-10-07 09:43:00,71.7,69.0,30.03,SSW,202,17.3,22.0,92,0.00,,,0.02,Rainwise IP-100,2013-10-07 13:43:00,
2013-10-07 09:48:00,71.9,69.0,30.03,SSW,202,14.0,18.0,92,0.00,,,0.02,Rainwise IP-100,2013-10-07 13:48:00,
2013-10-07 09:53:00,72.0,69.0,30.03,SSW,202,13.3,23.0,92,0.00,,,0.02,Rainwise IP-100,2013-10-07 13:53:00,
2013-10-07 09:58:00,71.9,69.0,30.02,SSW,202,15.6,22.0,92,0.00,,,0.02,Rainwise IP-100,2013-10-07 13:58:00,
2013-10-07 10:03:00,71.9,69.0,30.03,SSW,202,14.9,25.0,92,0.00,,,0.02,Rainwise IP-100,2013-10-07 14:03:00,
2013-10-07 10:08:00,72.1,69.0,30.03,SSE,157,10.3,27.0,92,0.00,,,0.02,Rainwise IP-100,2013-10-07 14:08:00,
2013-10-07 10:13:00,72.2,69.0,30.03,SSW,202,15.4,25.0,91,0.00,,,0.02,Rainwise IP-100,2013-10-07 14:13:00,
2013-10-07 10:18:00,72.2,69.0,30.02,SSW,202,16.6,22.0,91,0.00,,,0.02,Rainwise IP-100,2013-10-07 14:18:00,
2013-10-07 10:23:00,72.3,69.0,30.02,SSW,202,15.4,21.0,91,0.00,,,0.02,Rainwise IP-100,2013-10-07 14:23:00,
2013-10-07 10:28:00,72.5,69.0,30.02,SSW,202,13.3,19.0,90,0.00,,,0.02,Rainwise IP-100,2013-10-07 14:28:00,
2013-10-07 10:33:00,72.6,69.0,30.02,SSW,202,14.7,20.0,90,0.00,,,0.02,Rainwise IP-100,2013-10-07 14:33:00,
2013-10-07 10:38:00,72.8,69.0,30.02,SSW,202,19.6,23.0,89,0.00,,,0.02,Rainwise IP-100,2013-10-07 14:38:00,
2013-10-07 10:43:00,73.2,70.0,30.02,SSW,202,17.5,25.0,89,0.00,,,0.02,Rainwise IP-100,2013-10-07 14:43:00,
2013-10-07 10:48:00,73.3,69.0,30.02,South,180,18.0,23.0,88,0.00,,,0.02,Rainwise IP-100,2013-10-07 14:48:00,
2013-10-07 10:53:00,73.4,69.0,30.01,SSW,202,21.7,22.0,88,0.00,,,0.02,Rainwise IP-100,2013-10-07 14:53:00,
2013-10-07 10:58:00,73.8,69.0,30.01,SSW,202,21.2,25.0,87,0.00,,,0.02,Rainwise IP-100,2013-10-07 14:58:00,
2013-10-07 11:03:00,74.0,70.0,30.01,SSW,202,18.2,25.0,87,0.00,,,0.02,Rainwise IP-100,2013-10-07 15:03:00,
2013-10-07 11:08:00,74.0,69.0,30.01,SSW,202,24.9,24.9,86,0.00,,,0.02,Rainwise IP-100,2013-10-07 15:08:00,
2013-10-07 11:13:00,74.0,69.0,30.01,SSW,202,21.5,25.0,86,0.00,,,0.02,Rainwise IP-100,2013-10-07 15:13:00,
2013-10-07 11:18:00,74.0,69.0,30.01,SSW,202,17.0,23.0,86,0.00,,,0.02,Rainwise IP-100,2013-10-07 15:18:00,
2013-10-07 11:23:00,73.7,69.0,30.01,SSW,202,17.3,24.0,86,0.00,,,0.02,Rainwise IP-100,2013-10-07 15:23:00,
2013-10-07 11:28:00,73.8,69.0,30.00,South,180,10.0,24.0,86,0.00,,,0.02,Rainwise IP-100,2013-10-07 15:28:00,
2013-10-07 11:33:00,73.9,69.0,30.00,SSW,202,7.9,23.0,85,0.00,,,0.02,Rainwise IP-100,2013-10-07 15:33:00,
2013-10-07 11:38:00,73.9,69.0,29.99,South,180,19.8,24.0,85,0.00,,,0.02,Rainwise IP-100,2013-10-07 15:38:00,
2013-10-07 11:43:00,74.2,69.0,30.00,SSW,202,19.8,26.0,84,0.00,,,0.02,Rainwise IP-100,2013-10-07 15:43:00,
2013-10-07 11:48:00,74.4,69.0,30.00,SSW,202,17.0,22.0,84,0.00,,,0.02,Rainwise IP-100,2013-10-07 15:48:00,
2013-10-07 11:53:00,74.7,69.0,29.99,SSW,202,24.0,24.0,83,0.00,,,0.02,Rainwise IP-100,2013-10-07 15:53:00,
2013-10-07 11:58:00,74.8,69.0,30.00,South,180,19.1,30.0,83,0.00,,,0.02,Rainwise IP-100,2013-10-07 15:58:00,
2013-10-07 12:03:00,74.7,69.0,29.99,SSW,202,16.6,29.0,82,0.00,,,0.02,Rainwise IP-100,2013-10-07 16:03:00,
2013-10-07 12:08:00,74.4,69.0,30.00,SSW,202,18.0,25.0,82,0.00,,,0.02,Rainwise IP-100,2013-10-07 16:08:00,
2013-10-07 12:13:00,74.3,69.0,29.99,SSW,202,24.9,27.0,83,0.00,,,0.02,Rainwise IP-100,2013-10-07 16:13:00,
2013-10-07 12:18:00,74.0,69.0,30.00,SSW,202,18.2,25.0,83,0.00,,,0.02,Rainwise IP-100,2013-10-07 16:18:00,
2013-10-07 12:23:00,74.0,69.0,29.99,South,180,17.7,25.0,83,0.00,,,0.02,Rainwise IP-100,2013-10-07 16:23:00,
2013-10-07 12:28:00,74.0,69.0,29.98,SSW,202,19.8,26.0,83,0.00,,,0.02,Rainwise IP-100,2013-10-07 16:28:00,
2013-10-07 12:33:00,73.8,69.0,29.98,SSW,202,16.6,26.0,84,0.00,,,0.02,Rainwise IP-100,2013-10-07 16:33:00,
2013-10-07 12:38:00,73.9,69.0,29.98,SSW,202,14.5,21.0,84,0.00,,,0.02,Rainwise IP-100,2013-10-07 16:38:00,
2013-10-07 12:43:00,74.0,69.0,29.98,SSW,202,16.3,24.0,84,0.00,,,0.02,Rainwise IP-100,2013-10-07 16:43:00,
2013-10-07 12:48:00,74.1,69.0,29.97,SSW,202,19.4,23.0,84,0.00,,,0.02,Rainwise IP-100,2013-10-07 16:48:00,
2013-10-07 12:53:00,74.2,69.0,29.97,SSW,202,19.1,26.0,84,0.00,,,0.02,Rainwise IP-100,2013-10-07 16:53:00,
2013-10-07 12:58:00,73.9,69.0,29.97,SSW,202,13.8,24.0,84,0.00,,,0.02,Rainwise IP-100,2013-10-07 16:58:00,
2013-10-07 13:03:00,73.7,69.0,29.96,SSW,202,20.5,22.0,84,0.00,,,0.02,Rainwise IP-100,2013-10-07 17:03:00,
2013-10-07 13:08:00,73.5,69.0,29.96,SSW,202,16.1,28.0,85,0.00,,,0.02,Rainwise IP-100,2013-10-07 17:08:00,
2013-10-07 13:13:00,73.3,69.0,29.95,SSW,202,18.9,25.0,86,0.00,,,0.02,Rainwise IP-100,2013-10-07 17:13:00,
2013-10-07 13:18:00,73.3,69.0,29.95,South,180,15.2,27.0,86,0.00,,,0.02,Rainwise IP-100,2013-10-07 17:18:00,
2013-10-07 13:23:00,73.1,69.0,29.96,SSW,202,14.7,25.0,87,0.00,,,0.02,Rainwise IP-100,2013-10-07 17:23:00,
2013-10-07 13:28:00,72.7,68.0,29.95,SSW,202,11.9,29.0,87,0.00,,,0.02,Rainwise IP-100,2013-10-07 17:28:00,
2013-10-07 13:33:00,72.4,68.0,29.95,SSW,202,23.1,28.0,87,0.00,,,0.02,Rainwise IP-100,2013-10-07 17:33:00,
2013-10-07 13:38:00,72.2,68.0,29.95,SSW,202,23.8,28.0,88,0.00,,,0.02,Rainwise IP-100,2013-10-07 17:38:00,
2013-10-07 13:43:00,72.1,68.0,29.95,SSW,202,27.7,27.7,89,0.00,,,0.02,Rainwise IP-100,2013-10-07 17:43:00,
2013-10-07 13:48:00,72.1,68.0,29.95,SSW,202,17.5,27.0,89,0.00,,,0.02,Rainwise IP-100,2013-10-07 17:48:00,
2013-10-07 13:53:00,72.2,69.0,29.94,SSW,202,21.7,27.0,89,0.00,,,0.02,Rainwise IP-100,2013-10-07 17:53:00,
2013-10-07 13:58:00,72.3,69.0,29.94,SSW,202,19.4,27.0,89,0.00,,,0.02,Rainwise IP-100,2013-10-07 17:58:00,
2013-10-07 14:03:00,72.4,68.0,29.94,SSW,202,24.2,27.0,88,0.00,,,0.02,Rainwise IP-100,2013-10-07 18:03:00,
2013-10-07 14:08:00,72.6,69.0,29.94,SSW,202,13.8,26.0,88,0.00,,,0.02,Rainwise IP-100,2013-10-07 18:08:00,
2013-10-07 14:13:00,72.9,69.0,29.93,SSW,202,20.3,28.0,87,0.00,,,0.02,Rainwise IP-100,2013-10-07 18:13:00,
2013-10-07 14:18:00,73.1,69.0,29.93,SSW,202,21.7,28.0,87,0.00,,,0.02,Rainwise IP-100,2013-10-07 18:18:00,
2013-10-07 14:23:00,73.3,69.0,29.93,SSW,202,24.2,32.0,86,0.00,,,0.02,Rainwise IP-100,2013-10-07 18:23:00,
2013-10-07 14:28:00,73.5,69.0,29.93,SSW,202,22.4,28.0,86,0.00,,,0.02,Rainwise IP-100,2013-10-07 18:28:00,
2013-10-07 14:33:00,73.6,69.0,29.93,SSW,202,16.6,28.0,85,0.00,,,0.02,Rainwise IP-100,2013-10-07 18:33:00,
2013-10-07 14:38:00,73.4,69.0,29.93,SSW,202,17.7,29.0,85,0.00,,,0.02,Rainwise IP-100,2013-10-07 18:38:00,
2013-10-07 14:43:00,73.3,69.0,29.93,SSW,202,24.0,30.0,86,0.00,,,0.02,Rainwise IP-100,2013-10-07 18:43:00,
2013-10-07 14:48:00,73.4,69.0,29.94,SSW,202,14.7,28.0,86,0.00,,,0.02,Rainwise IP-100,2013-10-07 18:48:00,
2013-10-07 14:53:00,73.2,69.0,29.93,SSW,202,30.3,30.3,86,0.00,,,0.02,Rainwise IP-100,2013-10-07 18:53:00,
2013-10-07 14:58:00,73.0,69.0,29.93,SSW,202,23.1,30.0,86,0.00,,,0.02,Rainwise IP-100,2013-10-07 18:58:00,
2013-10-07 15:03:00,72.8,68.0,29.94,SSW,202,24.9,30.0,87,0.00,,,0.02,Rainwise IP-100,2013-10-07 19:03:00,
2013-10-07 15:08:00,72.6,68.0,29.93,SSW,202,19.4,29.0,87,0.00,,,0.02,Rainwise IP-100,2013-10-07 19:08:00,
2013-10-07 15:13:00,72.7,68.0,29.93,SSW,202,18.2,26.0,87,0.00,,,0.02,Rainwise IP-100,2013-10-07 19:13:00,
2013-10-07 15:18:00,72.6,68.0,29.93,SSW,202,20.3,28.0,87,0.00,,,0.02,Rainwise IP-100,2013-10-07 19:18:00,
2013-10-07 15:23:00,72.5,68.0,29.93,SSW,202,21.7,26.0,87,0.00,,,0.02,Rainwise IP-100,2013-10-07 19:23:00,
2013-10-07 15:28:00,72.6,69.0,29.93,SSW,202,16.6,27.0,88,0.00,,,0.02,Rainwise IP-100,2013-10-07 19:28:00,
2013-10-07 15:33:00,72.7,68.0,29.93,SSW,202,15.9,29.0,87,0.00,,,0.02,Rainwise IP-100,2013-10-07 19:33:00,
2013-10-07 15:38:00,72.7,68.0,29.93,SSW,202,19.6,29.0,87,0.00,,,0.02,Rainwise IP-100,2013-10-07 19:38:00,
2013-10-07 15:43:00,72.8,68.0,29.92,SSW,202,17.0,28.0,87,0.00,,,0.02,Rainwise IP-100,2013-10-07 19:43:00,
2013-10-07 15:48:00,73.1,69.0,29.92,SSW,202,26.8,28.0,87,0.00,,,0.02,Rainwise IP-100,2013-10-07 19:48:00,
2013-10-07 15:53:00,73.3,69.0,29.92,SSW,202,21.9,28.0,86,0.00,,,0.02,Rainwise IP-100,2013-10-07 19:53:00,
2013-10-07 15:58:00,73.4,69.0,29.93,SSW,202,19.6,32.0,86,0.00,,,0.02,Rainwise IP-100,2013-10-07 19:58:00,
2013-10-07 16:03:00,73.4,69.0,29.92,SSW,202,14.7,29.0,86,0.00,,,0.02,Rainwise IP-100,2013-10-07 20:03:00,
2013-10-07 16:08:00,73.3,69.0,29.92,SSW,202,28.7,28.7,86,0.00,,,0.02,Rainwise IP-100,2013-10-07 20:08:00,
2013-10-07 16:13:00,73.2,69.0,29.92,SW,225,19.8,28.0,86,0.00,,,0.02,Rainwise IP-100,2013-10-07 20:13:00,
2013-10-07 16:18:00,73.1,69.0,29.92,SSW,202,18.0,30.0,87,0.00,,,0.02,Rainwise IP-100,2013-10-07 20:18:00,
2013-10-07 16:23:00,73.0,69.0,29.92,SSW,202,24.5,29.0,87,0.00,,,0.02,Rainwise IP-100,2013-10-07 20:23:00,
2013-10-07 16:28:00,72.7,69.0,29.92,SSW,202,20.8,28.0,88,0.00,,,0.02,Rainwise IP-100,2013-10-07 20:28:00,
2013-10-07 16:33:00,72.5,69.0,29.92,SSW,202,24.9,29.0,88,0.00,,,0.02,Rainwise IP-100,2013-10-07 20:33:00,
2013-10-07 16:38:00,72.4,69.0,29.92,SSW,202,21.2,30.0,89,0.00,,,0.02,Rainwise IP-100,2013-10-07 20:38:00,
2013-10-07 16:43:00,72.2,69.0,29.93,SSW,202,21.5,30.0,89,0.00,,,0.02,Rainwise IP-100,2013-10-07 20:43:00,
2013-10-07 16:48:00,72.0,68.0,29.92,SW,225,17.7,30.0,89,0.00,,,0.02,Rainwise IP-100,2013-10-07 20:48:00,
2013-10-07 16:53:00,71.9,69.0,29.93,SSW,202,21.2,27.0,90,0.00,,,0.02,Rainwise IP-100,2013-10-07 20:53:00,
2013-10-07 16:58:00,71.9,69.0,29.92,SSW,202,25.6,27.0,90,0.00,,,0.02,Rainwise IP-100,2013-10-07 20:58:00,
2013-10-07 17:03:00,71.8,68.0,29.92,SSW,202,15.4,30.0,90,0.00,,,0.02,Rainwise IP-100,2013-10-07 21:03:00,
2013-10-07 17:08:00,71.7,68.0,29.93,SSW,202,9.3,26.0,90,0.00,,,0.02,Rainwise IP-100,2013-10-07 21:08:00,
2013-10-07 17:13:00,71.5,68.0,29.93,SSW,202,20.8,30.0,90,0.00,,,0.02,Rainwise IP-100,2013-10-07 21:13:00,
2013-10-07 17:18:00,71.4,68.0,29.93,SSW,202,22.4,24.0,91,0.00,,,0.02,Rainwise IP-100,2013-10-07 21:18:00,
2013-10-07 17:23:00,71.3,68.0,29.93,SSW,202,23.3,30.0,91,0.00,,,0.02,Rainwise IP-100,2013-10-07 21:23:00,
2013-10-07 17:28:00,71.4,68.0,29.93,SW,225,19.8,24.0,91,0.00,,,0.02,Rainwise IP-100,2013-10-07 21:28:00,
2013-10-07 17:33:00,71.4,68.0,29.93,SSW,202,26.6,27.0,91,0.00,,,0.02,Rainwise IP-100,2013-10-07 21:33:00,
2013-10-07 17:38:00,71.4,68.0,29.93,SW,225,15.9,27.0,91,0.00,,,0.02,Rainwise IP-100,2013-10-07 21:38:00,
2013-10-07 17:43:00,71.3,68.0,29.93,SW,225,23.1,27.0,91,0.00,,,0.02,Rainwise IP-100,2013-10-07 21:43:00,
2013-10-07 17:48:00,71.1,68.0,29.93,SSW,202,24.2,28.0,91,0.00,,,0.02,Rainwise IP-100,2013-10-07 21:48:00,
2013-10-07 17:53:00,71.0,68.0,29.93,SSW,202,21.0,26.0,91,0.00,,,0.02,Rainwise IP-100,2013-10-07 21:53:00,
2013-10-07 17:58:00,70.9,68.0,29.93,SSW,202,18.4,26.0,91,0.00,,,0.02,Rainwise IP-100,2013-10-07 21:58:00,
2013-10-07 18:03:00,70.9,68.0,29.93,SSW,202,20.1,29.0,92,0.00,,,0.02,Rainwise IP-100,2013-10-07 22:03:00,
2013-10-07 18:08:00,70.9,68.0,29.93,SSW,202,18.0,28.0,92,0.00,,,0.02,Rainwise IP-100,2013-10-07 22:08:00,
2013-10-07 18:13:00,70.8,68.0,29.93,SSW,202,24.5,29.0,92,0.00,,,0.02,Rainwise IP-100,2013-10-07 22:13:00,
2013-10-07 18:18:00,70.8,68.0,29.94,SW,225,19.6,34.0,92,0.00,,,0.02,Rainwise IP-100,2013-10-07 22:18:00,
2013-10-07 18:23:00,70.8,68.0,29.94,SW,225,20.3,28.0,92,0.00,,,0.02,Rainwise IP-100,2013-10-07 22:23:00,
2013-10-07 18:28:00,70.8,68.0,29.94,SW,225,21.2,30.0,92,0.00,,,0.02,Rainwise IP-100,2013-10-07 22:28:00,
2013-10-07 18:33:00,70.8,68.0,29.94,SW,225,25.4,25.4,92,0.00,,,0.02,Rainwise IP-100,2013-10-07 22:33:00,
2013-10-07 18:38:00,70.8,68.0,29.94,SW,225,19.6,28.0,92,0.00,,,0.02,Rainwise IP-100,2013-10-07 22:38:00,
2013-10-07 18:43:00,70.9,68.0,29.94,SW,225,26.6,28.0,92,0.00,,,0.02,Rainwise IP-100,2013-10-07 22:43:00,
2013-10-07 18:48:00,71.0,68.0,29.94,SW,225,20.1,30.0,91,0.00,,,0.02,Rainwise IP-100,2013-10-07 22:48:00,
2013-10-07 18:53:00,71.1,68.0,29.94,WSW,247,22.6,27.0,91,0.00,,,0.02,Rainwise IP-100,2013-10-07 22:53:00,
2013-10-07 18:58:00,71.0,67.0,29.94,WSW,247,17.3,27.0,90,0.00,,,0.02,Rainwise IP-100,2013-10-07 22:58:00,
2013-10-07 19:03:00,70.9,67.0,29.95,WSW,247,22.9,31.0,90,0.00,,,0.02,Rainwise IP-100,2013-10-07 23:03:00,
2013-10-07 19:08:00,70.7,67.0,29.94,SW,225,21.2,25.0,91,0.00,,,0.02,Rainwise IP-100,2013-10-07 23:08:00,
2013-10-07 19:13:00,70.4,68.0,29.94,SW,225,19.4,30.0,92,0.00,,,0.02,Rainwise IP-100,2013-10-07 23:13:00,
2013-10-07 19:18:00,70.1,68.0,29.95,WSW,247,19.6,27.0,93,0.00,,,0.02,Rainwise IP-100,2013-10-07 23:18:00,
2013-10-07 19:23:00,69.9,68.0,29.94,SW,225,21.5,28.0,93,0.00,,,0.02,Rainwise IP-100,2013-10-07 23:23:00,
2013-10-07 19:28:00,69.8,67.0,29.93,WSW,247,24.0,28.0,93,0.00,,,0.02,Rainwise IP-100,2013-10-07 23:28:00,
2013-10-07 19:33:00,69.7,67.0,29.93,WSW,247,21.9,24.0,93,0.00,,,0.02,Rainwise IP-100,2013-10-07 23:33:00,
2013-10-07 19:38:00,69.7,67.0,29.93,SW,225,17.5,24.0,93,0.00,,,0.02,Rainwise IP-100,2013-10-07 23:38:00,
2013-10-07 19:43:00,69.6,67.0,29.92,SW,225,15.4,24.0,93,0.00,,,0.02,Rainwise IP-100,2013-10-07 23:43:00,
2013-10-07 19:48:00,69.5,68.0,29.92,SW,225,18.4,23.0,94,0.00,,,0.02,Rainwise IP-100,2013-10-07 23:48:00,
2013-10-07 19:53:00,69.4,67.0,29.93,WSW,247,12.8,25.0,94,0.00,,,0.02,Rainwise IP-100,2013-10-07 23:53:00,
2013-10-07 19:58:00,69.2,67.0,29.93,WSW,247,15.2,21.0,94,0.00,,,0.02,Rainwise IP-100,2013-10-07 23:58:00,
2013-10-07 20:03:00,69.1,67.0,29.94,WSW,247,15.2,22.0,95,0.00,,,0.02,Rainwise IP-100,2013-10-08 00:03:00,
2013-10-07 20:08:00,69.1,67.0,29.93,WSW,247,14.0,21.0,95,0.00,,,0.02,Rainwise IP-100,2013-10-08 00:08:00,
2013-10-07 20:13:00,69.1,67.0,29.92,WSW,247,15.4,23.0,95,0.00,,,0.02,Rainwise IP-100,2013-10-08 00:13:00,
2013-10-07 20:18:00,69.0,67.0,29.92,WSW,247,12.1,17.0,94,0.00,,,0.02,Rainwise IP-100,2013-10-08 00:18:00,
2013-10-07 20:23:00,68.9,67.0,29.94,WNW,292,26.6,26.6,94,0.00,,,0.02,Rainwise IP-100,2013-10-08 00:23:00,
2013-10-07 20:28:00,68.9,66.0,29.94,West,270,22.9,27.0,93,0.00,,,0.02,Rainwise IP-100,2013-10-08 00:28:00,
2013-10-07 20:33:00,68.7,66.0,29.94,West,270,18.4,23.0,93,0.00,,,0.02,Rainwise IP-100,2013-10-08 00:33:00,
2013-10-07 20:38:00,68.6,66.0,29.94,West,270,16.8,22.0,93,0.00,,,0.02,Rainwise IP-100,2013-10-08 00:38:00,
2013-10-07 20:43:00,68.4,66.0,29.94,West,270,16.8,21.0,93,0.00,,,0.02,Rainwise IP-100,2013-10-08 00:43:00,
2013-10-07 20:48:00,68.4,66.0,29.95,West,270,17.5,19.0,93,0.00,,,0.02,Rainwise IP-100,2013-10-08 00:48:00,
2013-10-07 20:53:00,68.3,66.0,29.95,West,270,19.4,20.0,93,0.00,,,0.02,Rainwise IP-100,2013-10-08 00:53:00,
2013-10-07 20:58:00,68.2,66.0,29.94,WNW,292,18.7,22.0,93,0.00,,,0.02,Rainwise IP-100,2013-10-08 00:58:00,
2013-10-07 21:03:00,68.0,65.0,29.94,WNW,292,21.5,27.0,92,0.00,,,0.02,Rainwise IP-100,2013-10-08 01:03:00,
2013-10-07 21:08:00,67.9,64.0,29.94,WNW,292,17.5,22.0,89,0.00,,,0.02,Rainwise IP-100,2013-10-08 01:08:00,
2013-10-07 21:13:00,67.8,63.0,29.94,WNW,292,16.1,19.0,86,0.00,,,0.02,Rainwise IP-100,2013-10-08 01:13:00,
2013-10-07 21:18:00,67.8,63.0,29.94,WNW,292,15.9,20.0,85,0.00,,,0.02,Rainwise IP-100,2013-10-08 01:18:00,
2013-10-07 21:23:00,67.7,63.0,29.95,WNW,292,14.2,18.0,85,0.00,,,0.02,Rainwise IP-100,2013-10-08 01:23:00,
2013-10-07 21:28:00,67.6,63.0,29.95,WNW,292,13.3,20.0,85,0.00,,,0.02,Rainwise IP-100,2013-10-08 01:28:00,
2013-10-07 21:33:00,67.6,63.0,29.95,WNW,292,18.2,20.0,85,0.00,,,0.02,Rainwise IP-100,2013-10-08 01:33:00,
2013-10-07 21:38:00,67.5,63.0,29.95,WNW,292,16.8,21.0,85,0.00,,,0.02,Rainwise IP-100,2013-10-08 01:38:00,
2013-10-07 21:43:00,67.4,63.0,29.95,WNW,292,16.8,19.0,85,0.00,,,0.02,Rainwise IP-100,2013-10-08 01:43:00,
2013-10-07 21:48:00,67.4,62.0,29.95,WNW,292,17.3,22.0,84,0.00,,,0.02,Rainwise IP-100,2013-10-08 01:48:00,
2013-10-07 21:53:00,67.4,62.0,29.95,WNW,292,23.1,23.1,83,0.00,,,0.02,Rainwise IP-100,2013-10-08 01:53:00,
2013-10-07 21:58:00,67.4,62.0,29.95,WNW,292,18.7,24.0,83,0.00,,,0.02,Rainwise IP-100,2013-10-08 01:58:00,
2013-10-07 22:03:00,67.3,62.0,29.96,WNW,292,21.5,23.0,83,0.00,,,0.02,Rainwise IP-100,2013-10-08 02:03:00,
2013-10-07 22:08:00,67.2,62.0,29.96,NW,315,20.5,26.0,84,0.00,,,0.02,Rainwise IP-100,2013-10-08 02:08:00,
2013-10-07 22:13:00,67.1,62.0,29.96,NW,315,15.6,23.0,84,0.00,,,0.02,Rainwise IP-100,2013-10-08 02:13:00,
2013-10-07 22:18:00,67.1,62.0,29.97,NW,315,16.3,20.0,85,0.00,,,0.02,Rainwise IP-100,2013-10-08 02:18:00,
2013-10-07 22:23:00,67.0,62.0,29.96,NW,315,14.9,18.0,85,0.00,,,0.02,Rainwise IP-100,2013-10-08 02:23:00,
2013-10-07 22:28:00,66.8,62.0,29.97,NW,315,16.3,19.0,86,0.00,,,0.02,Rainwise IP-100,2013-10-08 02:28:00,
2013-10-07 22:33:00,66.7,62.0,29.97,NNW,337,15.6,18.0,86,0.00,,,0.02,Rainwise IP-100,2013-10-08 02:33:00,
2013-10-07 22:38:00,66.5,62.0,29.97,NNW,337,13.5,18.0,86,0.00,,,0.02,Rainwise IP-100,2013-10-08 02:38:00,
2013-10-07 22:43:00,66.4,61.0,29.97,NNW,337,17.3,19.0,85,0.00,,,0.02,Rainwise IP-100,2013-10-08 02:43:00,
2013-10-07 22:48:00,66.2,61.0,29.97,WNW,292,14.9,18.0,84,0.00,,,0.02,Rainwise IP-100,2013-10-08 02:48:00,
2013-10-07 22:53:00,66.2,61.0,29.97,NNW,337,13.1,18.0,84,0.00,,,0.02,Rainwise IP-100,2013-10-08 02:53:00,
2013-10-07 22:58:00,66.0,61.0,29.96,WNW,292,10.3,15.0,84,0.00,,,0.02,Rainwise IP-100,2013-10-08 02:58:00,
2013-10-07 23:03:00,65.8,60.0,29.98,NW,315,15.2,16.0,84,0.00,,,0.02,Rainwise IP-100,2013-10-08 03:03:00,
2013-10-07 23:08:00,65.8,60.0,29.97,NNW,337,10.0,18.0,83,0.00,,,0.02,Rainwise IP-100,2013-10-08 03:08:00,
2013-10-07 23:13:00,65.7,60.0,29.98,NW,315,11.9,17.0,83,0.00,,,0.02,Rainwise IP-100,2013-10-08 03:13:00,
2013-10-07 23:18:00,65.7,60.0,29.98,NW,315,14.7,18.0,82,0.00,,,0.02,Rainwise IP-100,2013-10-08 03:18:00,
2013-10-07 23:23:00,65.7,60.0,29.98,NW,315,17.0,19.0,82,0.00,,,0.02,Rainwise IP-100,2013-10-08 03:23:00,
2013-10-07 23:28:00,65.7,59.0,29.98,NW,315,13.5,19.0,81,0.00,,,0.02,Rainwise IP-100,2013-10-08 03:28:00,
2013-10-07 23:33:00,65.8,59.0,29.98,NW,315,17.3,19.0,81,0.00,,,0.02,Rainwise IP-100,2013-10-08 03:33:00,
2013-10-07 23:38:00,65.7,59.0,29.98,WNW,292,14.2,22.0,79,0.00,,,0.02,Rainwise IP-100,2013-10-08 03:38:00,
2013-10-07 23:43:00,65.7,58.0,29.98,WNW,292,13.5,21.0,77,0.00,,,0.02,Rainwise IP-100,2013-10-08 03:43:00,
2013-10-07 23:48:00,65.7,57.0,29.99,NNW,337,17.0,22.0,76,0.00,,,0.02,Rainwise IP-100,2013-10-08 03:48:00,
2013-10-07 23:53:00,65.5,57.0,29.98,NNW,337,15.4,21.0,76,0.00,,,0.02,Rainwise IP-100,2013-10-08 03:53:00,
2013-10-07 23:58:00,65.4,57.0,29.98,NNW,337,16.8,21.0,76,0.00,,,0.02,Rainwise IP-100,2013-10-08 03:58:00,